Riverside, CA

5:03 PM PDT on August 25, 2016 (GMT -0700)
Riverside Municipal

Weather History for KRAL - September, 2012

Change the Weather History Date:

Friday, September 14, 2012

  Actual Average Record
Temperature  
Mean Temperature 87 °F 77 °F  
Max Temperature 106 °F 91 °F 109 °F (1938)
Min Temperature 68 °F 62 °F 41 °F (1901)
Degree Days  
Heating Degree Days 0 0  
Month to date heating degree days 0 0  
Since 1 July heating degree days 0 0  
Cooling Degree Days 22 12  
Month to date cooling degree days 246 179  
Year to date cooling degree days 1738 1437  
Growing Degree Days 38 (Base 50)    
Moisture  
Dew Point 45 °F    
Average Humidity 35    
Maximum Humidity 61    
Minimum Humidity 8    
Precipitation  
Precipitation 0.00 in 0.01 in 0.07 in (1918)
Month to date precipitation T 0.08  
Year to date precipitation 2.86 9.42  
Since 1 July precipitation 0.01  
Snow  
Snow 0.00 in - - ()
Month to date snowfall 0.0  
Year to date snowfall 0.0  
Snow Depth 0.00 in    
Sea Level Pressure  
Sea Level Pressure 29.93 in    
Wind  
Wind Speed 4 mph (East)    
Max Wind Speed 16 mph    
Max Gust Speed 24 mph    
Visibility 10 miles    
Events      
T = Trace of Precipitation, MM = Missing Value Source: NWS Daily Summary

Daily Weather History Graph

Daily Weather History Graph

Search for Another Location

Airport or City:

Trip Planner

Search our weather history database for the weather conditions in past years. The results will help you decide how hot, cold, wet, or windy it might be!

Date:

Astronomy

Sep. 14, 2012 Rise Set
Actual Time 6:32 AM PDT 6:56 PM PDT
Civil Twilight 6:07 AM PDT 7:21 PM PDT
Nautical Twilight 5:38 AM PDT 7:51 PM PDT
Astronomical Twilight 5:08 AM PDT 8:21 PM PDT
Moon 5:04 AM PDT (9/14) 5:55 PM PDT (9/14)
Length of Visible Light 13h 14m
Length of Day
12h 24m
Waning Crescent, 2% of the Moon is Illuminated
Sep 14
Waning Crescent
Sep 15
New
Sep 22
First Quarter
Sep 29
Full
Oct 8
Last Quarter

Hourly Weather History & Observations

Time (PDT) Temp. Dew Point Humidity Pressure Visibility Wind Dir Wind Speed Gust Speed Precip Events Conditions
12:53 AM 75.0 °F 55.0 °F 50% 29.94 in 10.0 mi Calm Calm - N/A   Clear
1:53 AM 73.9 °F 55.9 °F 53% 29.94 in 10.0 mi North 3.5 mph - N/A   Clear
2:53 AM 72.0 °F 55.9 °F 57% 29.94 in 10.0 mi Calm Calm - N/A   Clear
3:53 AM 69.1 °F 55.0 °F 61% 29.93 in 10.0 mi East 3.5 mph - N/A   Clear
4:53 AM 71.1 °F 54.0 °F 55% 29.93 in 10.0 mi East 3.5 mph - N/A   Clear
5:53 AM 72.0 °F 50.0 °F 46% 29.95 in 10.0 mi NE 5.8 mph - N/A   Clear
6:53 AM 71.1 °F 46.9 °F 42% 29.96 in 10.0 mi ENE 3.5 mph - N/A   Clear
7:53 AM 75.9 °F 48.9 °F 38% 29.97 in 10.0 mi ENE 3.5 mph - N/A   Clear
8:53 AM 84.0 °F 46.0 °F 26% 29.98 in 10.0 mi Calm Calm - N/A   Clear
9:53 AM 93.0 °F 42.1 °F 17% 29.97 in 10.0 mi Calm Calm - N/A   Clear
10:53 AM 98.1 °F 43.0 °F 15% 29.97 in 10.0 mi East 4.6 mph - N/A   Clear
11:53 AM 102.0 °F 35.1 °F 10% 29.95 in 10.0 mi East 8.1 mph 16.1 mph N/A   Clear
12:53 PM 104.0 °F 35.1 °F 9% 29.94 in 10.0 mi SE 8.1 mph - N/A   Partly Cloudy
1:53 PM 102.9 °F 36.0 °F 10% 29.91 in 10.0 mi SE 5.8 mph 19.6 mph N/A   Partly Cloudy
2:53 PM 105.1 °F 34.0 °F 9% 29.89 in 10.0 mi ESE 8.1 mph - N/A   Partly Cloudy
3:53 PM 106.0 °F 34.0 °F 8% 29.87 in 10.0 mi SSE 8.1 mph - N/A   Clear
4:53 PM 105.1 °F 34.0 °F 9% 29.85 in 10.0 mi NE 3.5 mph - N/A   Clear
5:53 PM 100.0 °F 39.9 °F 13% 29.86 in 10.0 mi West 8.1 mph - N/A   Clear
6:53 PM 96.1 °F 46.0 °F 18% 29.87 in 10.0 mi West 6.9 mph - N/A   Clear
7:53 PM 91.0 °F 44.1 °F 20% 29.89 in 10.0 mi West 5.8 mph - N/A   Clear
8:53 PM 88.0 °F 45.0 °F 22% 29.92 in 10.0 mi South 3.5 mph - N/A   Clear
9:53 PM 88.0 °F 46.0 °F 23% 29.92 in 10.0 mi SSE 3.5 mph - N/A   Clear
10:53 PM 82.9 °F 46.9 °F 28% 29.94 in 10.0 mi Calm Calm - N/A   Clear
11:53 PM 80.1 °F 50.0 °F 35% 29.94 in 10.0 mi Calm Calm - N/A   Clear